Weather in Stockport

United Kingdom     53°24′41″N   2°09′55″W
temp.,
°C
wind,
m/s
gust,
m/s
humid.,
%
clouds,
%
prec.,
mm/h
press.,
hPa
HPBL,
m
16 april, fri
fri1601:00+4ene11735 0.0 103345
04:00+3e11775 0.0 103323
07:00+3ese11755 0.0 103244
10:00+8s11533 0.0 1033674
13:00+12s11387 0.0 10311555
16:00+12wnw113578 0.0 10301952
19:00+11sw014687 0.0 1029968
22:00+8sse136321 0.0 1031221
17 april, sat
sat1701:00+6sse23705 0.0 1031104
04:00+4s127411 0.0 103161
07:00+4sse117550 0.0 103168
10:00+9s115637 0.0 1030548
13:00+12sw124318 0.0 10291580
16:00+14ssw113882 0.0 10271818
19:00+12sw225097 0.0 1026675
22:00+10sw1359100 0.0 1027312
18 april, sun
sun1801:00+8ssw2462100 0.0 1026253
04:00+6s1366100 0.0 1025182
07:00+5s1267100 0.0 1025179
10:00+8s1259100 0.0 1025521
13:00+12ssw2351100 0.0 10241304
16:00+13ssw324890 0.0 10231715
19:00+11sw225698 0.1 1023549
22:00+10ene016659 0.0 102434
19 april, mon
mon1901:00+7se237022 0.0 102376
04:00+6ene11677 0.0 102223
07:00+5ene12665 0.0 102268
10:00+10sse23432 0.0 1021848
13:00+13s354568 0.0 10201745
16:00+12sse3455100 0.1 10191147
19:00+11sse1461100 0.1 1019386
22:00+10sse1169100 0.0 101952
20 april, tue
tue2001:00+9ssw1174100 0.0 101845
04:00+8sw1177100 0.0 101860
07:00+8w1277100 0.0 1017138
10:00+10wnw3371100 0.0 1017805
13:00+9w3580100 0.4 10171069
16:00+7w3692100 1.1 1016833
19:00+6wnw5108648 1.8 1016910
22:00+5nw268919 0.0 1016200